When you browse on this site, cookies collect data to enhance your experience and personalize the content and advertising you see.
Visit our Privacy Policy to learn more. By continuing to use the site, you agree to this use of cookies and data.
  • In Deutschland
  • Länderverzeichnis
  • Für 7 Tage
  • Wassertemperatur
  • Wetterkarte
  • Widgets
  • user-avatar
    Anmelden

    Stündliche Wetter Igls

    Heute, 11 Dezember, Mittwoch

    Zeit Temperatur Niederschläge Wind Luftdruck Luftfeuchtigkeit
    00:00 -4°C° 0 mm 2 m/S 686 mmHg 43%
    01:00 -2°C° 0 mm 2 m/S 686 mmHg 28%
    02:00 -1°C° 0 mm 2 m/S 686 mmHg 27%
    03:00 -1°C° 0 mm 2 m/S 685 mmHg 26%
    04:00 -1°C° 0 mm 2 m/S 684 mmHg 26%
    05:00 -1°C° 0 mm 2 m/S 684 mmHg 25%
    06:00 +2°C° 0 mm 1 m/S 683 mmHg 25%
    07:00 +1°C° 0 mm 2 m/S 683 mmHg 25%
    08:00 +3°C° 0 mm 1 m/S 683 mmHg 29%
    09:00 +5°C° 0 mm 1 m/S 682 mmHg 32%
    10:00 +6°C° 0 mm 1 m/S 682 mmHg 36%
    11:00 +7°C° 0 mm 1 m/S 681 mmHg 41%
    12:00 +8°C° 0 mm 1 m/S 681 mmHg 46%
    13:00 +8°C° 0 mm 1 m/S 681 mmHg 49%
    14:00 +7°C° 0 mm 1 m/S 680 mmHg 49%
    15:00 +6°C° 0 mm 1 m/S 679 mmHg 48%
    16:00 +4°C° 0 mm 1 m/S 678 mmHg 48%
    17:00 +4°C° 0 mm 1 m/S 678 mmHg 46%
    18:00 +3°C° 0 mm 1 m/S 677 mmHg 44%
    19:00 +2°C° 0 mm 1 m/S 677 mmHg 42%
    20:00 +2°C° 0 mm 1 m/S 677 mmHg 43%
    21:00 +2°C° 0 mm 1 m/S 677 mmHg 44%
    22:00 +1°C° 0 mm 1 m/S 677 mmHg 45%
    23:00 +1°C° 0 mm 1 m/S 676 mmHg 50%

    Morgen, 12 Dezember, Donnerstag

    Zeit Temperatur Niederschläge Wind Luftdruck Luftfeuchtigkeit
    00:00 0°C° 0 mm 0 m/S 676 mmHg 55%
    01:00 -1°C° 0 mm 0 m/S 676 mmHg 60%
    02:00 -1°C° 0.1 mm 0 m/S 675 mmHg 64%
    03:00 0°C° 0.1 mm 1 m/S 675 mmHg 69%
    04:00 0°C° 0.1 mm 1 m/S 674 mmHg 74%
    05:00 0°C° 0.2 mm 1 m/S 675 mmHg 80%
    06:00 0°C° 0.2 mm 1 m/S 675 mmHg 87%
    07:00 0°C° 0.2 mm 1 m/S 675 mmHg 93%
    08:00 0°C° 0.3 mm 1 m/S 675 mmHg 92%
    09:00 +1°C° 0.3 mm 1 m/S 675 mmHg 91%
    10:00 +1°C° 0.3 mm 1 m/S 675 mmHg 90%
    11:00 +1°C° 0.2 mm 1 m/S 675 mmHg 89%
    12:00 +2°C° 0.2 mm 1 m/S 675 mmHg 87%
    13:00 +2°C° 0.2 mm 1 m/S 675 mmHg 86%
    14:00 +2°C° 0.1 mm 1 m/S 674 mmHg 88%
    15:00 +1°C° 0.1 mm 1 m/S 674 mmHg 91%
    16:00 +1°C° 0.1 mm 1 m/S 673 mmHg 93%
    17:00 0°C° 0 mm 1 m/S 673 mmHg 93%
    18:00 -1°C° 0 mm 1 m/S 673 mmHg 93%
    19:00 -1°C° 0 mm 1 m/S 673 mmHg 93%
    20:00 -2°C° 0 mm 1 m/S 672 mmHg 90%
    21:00 -4°C° 0 mm 2 m/S 671 mmHg 86%
    22:00 -5°C° 0 mm 2 m/S 671 mmHg 83%
    23:00 -5°C° 0 mm 2 m/S 670 mmHg 82%

    übermorgen, 13 Dezember, Freitag

    Zeit Temperatur Niederschläge Wind Luftdruck Luftfeuchtigkeit
    00:00 -6°C° 0 mm 3 m/S 669 mmHg 80%
    01:00 -6°C° 0 mm 3 m/S 669 mmHg 79%
    02:00 -5°C° 0 mm 3 m/S 668 mmHg 79%
    03:00 -5°C° 0 mm 4 m/S 667 mmHg 79%
    04:00 -5°C° 0 mm 4 m/S 666 mmHg 79%
    05:00 -5°C° 0 mm 4 m/S 665 mmHg 79%
    06:00 -5°C° 0 mm 4 m/S 665 mmHg 78%
    07:00 -5°C° 0 mm 4 m/S 664 mmHg 78%
    08:00 -4°C° 0.1 mm 4 m/S 664 mmHg 77%
    09:00 -3°C° 0.1 mm 4 m/S 664 mmHg 76%
    10:00 -3°C° 0.1 mm 4 m/S 663 mmHg 75%
    11:00 -2°C° 0.5 mm 3 m/S 663 mmHg 78%
    12:00 -1°C° 0.5 mm 2 m/S 663 mmHg 82%
    13:00 -1°C° 0.5 mm 2 m/S 663 mmHg 85%
    14:00 +1°C° 0.5 mm 1 m/S 664 mmHg 87%
    15:00 +1°C° 0.5 mm 1 m/S 664 mmHg 89%
    16:00 +1°C° 0.5 mm 1 m/S 664 mmHg 91%
    17:00 0°C° 0.1 mm 1 m/S 664 mmHg 89%
    18:00 0°C° 0.1 mm 1 m/S 665 mmHg 88%
    19:00 -1°C° 0.1 mm 1 m/S 665 mmHg 86%
    20:00 -3°C° 0 mm 2 m/S 666 mmHg 85%
    21:00 -3°C° 0 mm 2 m/S 667 mmHg 85%
    22:00 -3°C° 0 mm 2 m/S 668 mmHg 84%
    23:00 -3°C° 0 mm 2 m/S 668 mmHg 85%

    14 Dezember, Samstag

    Zeit Temperatur Niederschläge Wind Luftdruck Luftfeuchtigkeit
    00:00 -4°C° 0 mm 2 m/S 669 mmHg 87%
    01:00 -4°C° 0 mm 2 m/S 670 mmHg 88%
    02:00 -4°C° 0 mm 2 m/S 670 mmHg 86%
    03:00 -3°C° 0 mm 1 m/S 671 mmHg 84%
    04:00 -3°C° 0 mm 1 m/S 671 mmHg 83%
    05:00 -5°C° 0 mm 2 m/S 672 mmHg 77%
    06:00 -4°C° 0 mm 2 m/S 672 mmHg 72%
    07:00 -4°C° 0 mm 2 m/S 673 mmHg 66%
    08:00 -2°C° 0.1 mm 2 m/S 673 mmHg 67%
    09:00 +1°C° 0.1 mm 2 m/S 674 mmHg 67%
    10:00 +3°C° 0.1 mm 2 m/S 674 mmHg 68%
    11:00 +3°C° 0 mm 2 m/S 675 mmHg 70%
    12:00 +4°C° 0 mm 2 m/S 675 mmHg 71%
    13:00 +6°C° 0 mm 1 m/S 675 mmHg 73%
    14:00 +6°C° 0 mm 1 m/S 675 mmHg 75%
    15:00 +5°C° 0 mm 1 m/S 676 mmHg 77%
    16:00 +5°C° 0 mm 1 m/S 676 mmHg 79%
    17:00 +3°C° 0 mm 2 m/S 676 mmHg 78%
    18:00 +3°C° 0 mm 2 m/S 677 mmHg 77%
    19:00 +3°C° 0 mm 2 m/S 677 mmHg 76%
    20:00 +3°C° 0 mm 2 m/S 677 mmHg 74%
    21:00 +2°C° 0 mm 2 m/S 678 mmHg 72%
    22:00 +1°C° 0 mm 3 m/S 678 mmHg 70%
    23:00 +2°C° 0 mm 2 m/S 678 mmHg 70%

    15 Dezember, Sonntag

    Zeit Temperatur Niederschläge Wind Luftdruck Luftfeuchtigkeit
    00:00 +2°C° 0 mm 2 m/S 678 mmHg 70%
    01:00 +2°C° 0 mm 2 m/S 678 mmHg 69%
    02:00 +2°C° 0 mm 2 m/S 678 mmHg 69%
    03:00 +1°C° 0 mm 3 m/S 678 mmHg 68%
    04:00 +1°C° 0 mm 3 m/S 678 mmHg 68%
    05:00 0°C° 0 mm 3 m/S 678 mmHg 68%
    06:00 0°C° 0 mm 3 m/S 678 mmHg 68%
    07:00 0°C° 0 mm 3 m/S 679 mmHg 69%
    08:00 +1°C° 0 mm 3 m/S 679 mmHg 69%
    09:00 +3°C° 0 mm 2 m/S 680 mmHg 69%
    10:00 +4°C° 0 mm 2 m/S 680 mmHg 69%
    11:00 +5°C° 0 mm 2 m/S 680 mmHg 71%
    12:00 +6°C° 0 mm 2 m/S 680 mmHg 73%
    13:00 +7°C° 0 mm 2 m/S 681 mmHg 75%
    14:00 +7°C° 0 mm 1 m/S 681 mmHg 77%
    15:00 +6°C° 0 mm 1 m/S 681 mmHg 78%
    16:00 +5°C° 0 mm 1 m/S 681 mmHg 80%
    17:00 +4°C° 0 mm 1 m/S 682 mmHg 78%
    18:00 +3°C° 0 mm 1 m/S 682 mmHg 77%
    19:00 +3°C° 0 mm 1 m/S 683 mmHg 75%
    20:00 +3°C° 0 mm 1 m/S 683 mmHg 75%
    21:00 +2°C° 0 mm 1 m/S 683 mmHg 74%
    22:00 +2°C° 0 mm 1 m/S 684 mmHg 74%
    23:00 +1°C° 0 mm 2 m/S 684 mmHg 75%

    16 Dezember, Montag

    Zeit Temperatur Niederschläge Wind Luftdruck Luftfeuchtigkeit
    00:00 +1°C° 0 mm 2 m/S 684 mmHg 76%
    01:00 +1°C° 0 mm 2 m/S 684 mmHg 77%
    02:00 -1°C° 0 mm 2 m/S 684 mmHg 78%
    03:00 -1°C° 0 mm 2 m/S 684 mmHg 79%
    04:00 -1°C° 0 mm 3 m/S 683 mmHg 81%
    05:00 0°C° 0 mm 3 m/S 683 mmHg 82%
    06:00 0°C° 0 mm 3 m/S 683 mmHg 83%
    07:00 0°C° 0 mm 3 m/S 683 mmHg 84%
    08:00 +1°C° 0 mm 3 m/S 683 mmHg 83%
    09:00 +1°C° 0 mm 4 m/S 684 mmHg 82%
    10:00 +3°C° 0 mm 4 m/S 684 mmHg 81%
    11:00 +3°C° 0 mm 4 m/S 683 mmHg 81%
    12:00 +4°C° 0 mm 4 m/S 683 mmHg 81%
    13:00 +5°C° 0 mm 4 m/S 683 mmHg 81%
    14:00 +4°C° 0 mm 4 m/S 683 mmHg 83%
    15:00 +4°C° 0 mm 4 m/S 683 mmHg 84%
    16:00 +3°C° 0 mm 4 m/S 682 mmHg 86%
    17:00 +3°C° 0 mm 4 m/S 682 mmHg 86%
    18:00 +3°C° 0 mm 4 m/S 683 mmHg 86%
    19:00 +3°C° 0 mm 4 m/S 683 mmHg 86%
    20:00 +3°C° 0 mm 4 m/S 683 mmHg 85%
    21:00 +3°C° 0 mm 4 m/S 683 mmHg 85%
    22:00 +3°C° 0 mm 4 m/S 683 mmHg 85%
    23:00 +3°C° 0 mm 4 m/S 683 mmHg 85%
    Mehr zeigen